| time (UTC) | temp F | wind direction | speed MPH | gust MPH | rain 1hr in | rain 24hr in | rain mn in | humidity % | barometer mb |
| 20260903193518 | 77 | 0 | 0.0 | 3.0 | 0.00 | 0.58 | 0.58 | 90 | 1012.7 |
| 20260903193036 | 77 | 0 | 0.0 | 3.0 | 0.00 | 0.58 | 0.58 | 90 | 1012.9 |
| 20260903192516 | 77 | 0 | 0.0 | 1.0 | 0.00 | 0.58 | 0.58 | 90 | 1013.0 |
| 20260903192016 | 77 | 0 | 0.0 | 3.0 | 0.00 | 0.58 | 0.58 | 90 | 1013.0 |
| 20260903191535 | 76 | 167 | 0.0 | 3.0 | 0.00 | 0.58 | 0.58 | 91 | 1013.1 |
| 20260903191018 | 76 | 0 | 0.0 | 3.0 | 0.00 | 0.58 | 0.58 | 92 | 1013.1 |
| 20260903190517 | 76 | 0 | 0.0 | 3.0 | 0.00 | 0.58 | 0.58 | 91 | 1013.2 |
| 20260903190038 | 76 | 0 | 0.0 | 5.0 | 0.00 | 0.58 | 0.58 | 91 | 1013.2 |
| 20260903185519 | 75 | 0 | 1.0 | 5.0 | 0.00 | 0.58 | 0.58 | 92 | 1013.1 |
| 20260903185018 | 75 | 0 | 1.0 | 4.0 | 0.00 | 0.58 | 0.58 | 92 | 1013.1 |
| 20260903184540 | 75 | 199 | 1.0 | 5.0 | 0.00 | 0.58 | 0.58 | 92 | 1013.0 |
| 20260903184021 | 75 | 169 | 1.0 | 5.0 | 0.00 | 0.58 | 0.58 | 93 | 1013.0 |
| 20260903183519 | 75 | 191 | 1.0 | 5.0 | 0.01 | 0.58 | 0.58 | 95 | 1013.2 |
| 20260903183040 | 74 | 198 | 2.0 | 4.0 | 0.05 | 0.58 | 0.58 | 95 | 1013.2 |
| 20260903182520 | 73 | 216 | 0.0 | 3.0 | 0.05 | 0.58 | 0.58 | 95 | 1013.1 |
| 20260903182018 | 73 | 0 | 1.0 | 3.0 | 0.05 | 0.58 | 0.58 | 94 | 1013.1 |
| 20260903181537 | 73 | 196 | 1.0 | 3.0 | 0.05 | 0.58 | 0.58 | 94 | 1013.5 |
| 20260903181022 | 73 | 234 | 1.0 | 3.0 | 0.07 | 0.58 | 0.58 | 94 | 1013.8 |
| 20260903180516 | 73 | 265 | 0.0 | 4.0 | 0.07 | 0.58 | 0.58 | 94 | 1013.6 |
| 20260903180039 | 73 | 0 | 0.0 | 4.0 | 0.07 | 0.58 | 0.58 | 95 | 1013.7 |
| 20260903175524 | 73 | 258 | 1.0 | 2.0 | 0.07 | 0.58 | 0.58 | 95 | 1013.8 |
| 20260903175018 | 72 | 283 | 0.0 | 3.0 | 0.07 | 0.58 | 0.58 | 95 | 1013.3 |
| 20260903174557 | 72 | 9 | 0.0 | 3.0 | 0.08 | 0.58 | 0.58 | 94 | 1013.0 |
| 20260903174016 | 72 | 121 | 2.0 | 6.0 | 0.07 | 0.58 | 0.58 | 94 | 1013.2 |
| 20260903173518 | 72 | 156 | 2.0 | 6.0 | 0.07 | 0.57 | 0.57 | 95 | 1013.8 |
| 20260903173040 | 72 | 232 | 0.0 | 2.0 | 0.04 | 0.54 | 0.54 | 95 | 1013.4 |
| 20260903172519 | 71 | 0 | 0.0 | 6.0 | 0.05 | 0.54 | 0.54 | 95 | 1012.9 |
| 20260903172021 | 71 | 0 | 1.0 | 6.0 | 0.07 | 0.54 | 0.54 | 94 | 1013.1 |
| 20260903171538 | 71 | 99 | 2.0 | 5.0 | 0.07 | 0.52 | 0.52 | 94 | 1013.5 |
| 20260903171018 | 71 | 89 | 2.0 | 5.0 | 0.08 | 0.52 | 0.52 | 94 | 1014.1 |
| 20260903170517 | 71 | 219 | 1.0 | 6.0 | 0.09 | 0.52 | 0.52 | 94 | 1014.4 |
| 20260903170058 | 71 | 101 | 1.0 | 6.0 | 0.12 | 0.52 | 0.52 | 94 | 1014.5 |
| 20260903165519 | 71 | 130 | 2.0 | 6.0 | 0.13 | 0.52 | 0.52 | 94 | 1014.9 |
| 20260903165020 | 71 | 142 | 2.0 | 9.0 | 0.14 | 0.52 | 0.52 | 94 | 1014.7 |
| 20260903164548 | 71 | 181 | 3.0 | 10.0 | 0.14 | 0.51 | 0.51 | 94 | 1015.3 |
| 20260903164021 | 71 | 196 | 3.0 | 10.0 | 0.14 | 0.50 | 0.50 | 94 | 1015.8 |
| 20260903163520 | 70 | 205 | 2.0 | 7.0 | 0.14 | 0.50 | 0.50 | 94 | 1015.8 |
| 20260903163037 | 70 | 194 | 1.0 | 6.0 | 0.15 | 0.50 | 0.50 | 93 | 1015.7 |
| 20260903162517 | 70 | 190 | 2.0 | 6.0 | 0.14 | 0.49 | 0.49 | 93 | 1015.7 |
| 20260903162018 | 70 | 209 | 2.0 | 10.0 | 0.12 | 0.47 | 0.47 | 93 | 1015.6 |
| 20260903161536 | 70 | 0 | 2.0 | 10.0 | 0.10 | 0.45 | 0.45 | 93 | 1015.6 |
| 20260903161022 | 70 | 242 | 3.0 | 16.0 | 0.09 | 0.44 | 0.44 | 93 | 1015.5 |
| 20260903160519 | 70 | 226 | 4.0 | 16.0 | 0.09 | 0.43 | 0.43 | 92 | 1015.2 |
| 20260903160034 | 70 | 40 | 5.0 | 16.0 | 0.07 | 0.40 | 0.40 | 92 | 1015.4 |
| 20260903155522 | 70 | 233 | 5.0 | 13.0 | 0.06 | 0.39 | 0.39 | 92 | 1015.6 |
| 20260903155023 | 70 | 261 | 5.0 | 11.0 | 0.06 | 0.38 | 0.38 | 91 | 1015.6 |
| 20260903154541 | 70 | 248 | 5.0 | 11.0 | 0.05 | 0.37 | 0.37 | 91 | 1015.2 |
| 20260903154020 | 70 | 249 | 2.0 | 8.0 | 0.04 | 0.36 | 0.36 | 91 | 1014.8 |
| 20260903153519 | 70 | 277 | 3.0 | 8.0 | 0.05 | 0.35 | 0.35 | 90 | 1014.5 |
| 20260903153036 | 70 | 279 | 2.0 | 7.0 | 0.06 | 0.35 | 0.35 | 90 | 1014.6 |
| 20260903152518 | 70 | 236 | 2.0 | 7.0 | 0.06 | 0.35 | 0.35 | 90 | 1014.7 |
| 20260903152018 | 70 | 207 | 1.0 | 7.0 | 0.06 | 0.35 | 0.35 | 90 | 1014.7 |
| 20260903151549 | 70 | 265 | 1.0 | 7.0 | 0.06 | 0.35 | 0.35 | 89 | 1015.0 |
| 20260903151018 | 70 | 232 | 2.0 | 6.0 | 0.05 | 0.34 | 0.34 | 88 | 1014.7 |
| 20260903150519 | 70 | 330 | 1.0 | 6.0 | 0.05 | 0.34 | 0.34 | 87 | 1014.5 |
| 20260903150041 | 70 | 5 | 2.0 | 8.0 | 0.04 | 0.33 | 0.33 | 86 | 1014.5 |
| 20260903145520 | 70 | 5 | 2.0 | 18.0 | 0.04 | 0.33 | 0.33 | 85 | 1014.4 |
| 20260903145023 | 70 | 314 | 4.0 | 18.0 | 0.03 | 0.32 | 0.32 | 84 | 1014.1 |
| 20260903144541 | 71 | 344 | 10.0 | 18.0 | 0.03 | 0.32 | 0.32 | 82 | 1014.2 |
| 20260903144018 | 71 | 352 | 7.0 | 15.0 | 0.03 | 0.32 | 0.32 | 83 | 1014.2 |
| 20260903143518 | 71 | 318 | 5.0 | 22.0 | 0.00 | 0.29 | 0.29 | 80 | 1014.3 |
| 20260903143043 | 72 | 360 | 10.0 | 23.0 | 0.00 | 0.29 | 0.29 | 77 | 1014.1 |
| 20260903142518 | 71 | 5 | 7.0 | 23.0 | 0.00 | 0.29 | 0.29 | 78 | 1013.9 |
| 20260903142020 | 71 | 344 | 5.0 | 23.0 | 0.00 | 0.29 | 0.29 | 83 | 1014.2 |
| 20260903141535 | 71 | 360 | 5.0 | 18.0 | 0.00 | 0.29 | 0.29 | 83 | 1014.4 |
| 20260903141021 | 71 | 352 | 3.0 | 24.0 | 0.00 | 0.29 | 0.29 | 82 | 1014.9 |
| 20260903140521 | 72 | 333 | 10.0 | 37.0 | 0.00 | 0.29 | 0.29 | 81 | 1014.4 |
| 20260903140034 | 72 | 338 | 17.0 | 37.0 | 0.00 | 0.29 | 0.29 | 81 | 1014.6 |
| 20260903135518 | 71 | 324 | 19.0 | 37.0 | 0.00 | 0.29 | 0.29 | 83 | 1014.4 |
| 20260903135018 | 70 | 352 | 11.0 | 22.0 | 0.00 | 0.29 | 0.29 | 90 | 1014.2 |
| 20260903134535 | 70 | 18 | 6.0 | 15.0 | 0.00 | 0.29 | 0.29 | 91 | 1014.4 |
| 20260903134022 | 70 | 304 | 3.0 | 14.0 | 0.00 | 0.29 | 0.29 | 91 | 1014.1 |
| 20260903133519 | 70 | 352 | 5.0 | 14.0 | 0.00 | 0.29 | 0.29 | 91 | 1014.2 |
| 20260903133046 | 71 | 17 | 5.0 | 17.0 | 0.00 | 0.29 | 0.29 | 92 | 1014.5 |
| 20260903132520 | 72 | 352 | 7.0 | 17.0 | 0.00 | 0.29 | 0.29 | 93 | 1014.4 |
| 20260903132019 | 73 | 307 | 6.0 | 15.0 | 0.00 | 0.29 | 0.29 | 94 | 1014.1 |
| 20260903131534 | 74 | 25 | 4.0 | 12.0 | 0.00 | 0.29 | 0.29 | 95 | 1013.9 |
| 20260903131016 | 74 | 298 | 3.0 | 9.0 | 0.00 | 0.29 | 0.29 | 96 | 1013.8 |
| 20260903130518 | 74 | 0 | 0.0 | 1.0 | 0.00 | 0.29 | 0.29 | 96 | 1012.7 |
| 20260903130036 | 74 | 0 | 0.0 | 3.0 | 0.00 | 0.29 | 0.29 | 96 | 1012.5 |
| 20260903125516 | 74 | 0 | 0.0 | 5.0 | 0.00 | 0.29 | 0.29 | 96 | 1012.6 |
| 20260903125018 | 75 | 211 | 1.0 | 5.0 | 0.00 | 0.29 | 0.29 | 96 | 1012.3 |
| 20260903124540 | 74 | 0 | 0.0 | 0.0 | 0.00 | 0.29 | 0.29 | 96 | 1012.1 |
| 20260903124018 | 74 | 0 | 0.0 | 0.0 | 0.00 | 0.29 | 0.29 | 96 | 1012.2 |
| 20260903123518 | 74 | 0 | 0.0 | 0.0 | 0.00 | 0.29 | 0.29 | 96 | 1012.2 |
| 20260903123036 | 74 | 0 | 0.0 | 0.0 | 0.00 | 0.29 | 0.29 | 96 | 1012.3 |
| 20260903122521 | 73 | 0 | 0.0 | 0.0 | 0.00 | 0.29 | 0.29 | 96 | 1012.3 |
| 20260903122019 | 73 | 0 | 0.0 | 0.0 | 0.00 | 0.29 | 0.29 | 96 | 1012.3 |
| 20260903121536 | 73 | 0 | 0.0 | 0.0 | 0.00 | 0.29 | 0.29 | 96 | 1012.3 |
| 20260903121018 | 73 | 0 | 0.0 | 0.0 | 0.00 | 0.29 | 0.29 | 96 | 1012.3 |
| 20260903120516 | 73 | 0 | 0.0 | 0.0 | 0.00 | 0.29 | 0.29 | 96 | 1012.4 |
| 20260903120034 | 72 | 0 | 0.0 | 0.0 | 0.00 | 0.29 | 0.29 | 96 | 1012.4 |
| 20260903115518 | 72 | 0 | 0.0 | 0.0 | 0.00 | 0.29 | 0.29 | 96 | 1012.3 |
| 20260903115023 | 72 | 0 | 0.0 | 0.0 | 0.00 | 0.29 | 0.29 | 96 | 1012.3 |
| 20260903114539 | 72 | 0 | 0.0 | 0.0 | 0.00 | 0.29 | 0.29 | 95 | 1012.3 |
| 20260903114017 | 72 | 0 | 0.0 | 0.0 | 0.00 | 0.29 | 0.29 | 96 | 1012.3 |
| 20260903113518 | 72 | 0 | 0.0 | 0.0 | 0.00 | 0.29 | 0.29 | 96 | 1012.4 |
| 20260903113034 | 72 | 0 | 0.0 | 0.0 | 0.00 | 0.29 | 0.29 | 96 | 1012.4 |
| 20260903112516 | 72 | 0 | 0.0 | 0.0 | 0.00 | 0.29 | 0.29 | 96 | 1012.5 |
| 20260903112020 | 71 | 0 | 0.0 | 0.0 | 0.00 | 0.29 | 0.29 | 96 | 1012.4 |
| 20260903111557 | 71 | 0 | 0.0 | 0.0 | 0.00 | 0.29 | 0.29 | 95 | 1012.5 |
| 20260903111016 | 71 | 0 | 0.0 | 0.0 | 0.00 | 0.29 | 0.29 | 95 | 1012.4 |
| 20260903110516 | 71 | 0 | 0.0 | 0.0 | 0.00 | 0.29 | 0.29 | 95 | 1012.4 |
| 20260903110041 | 71 | 0 | 0.0 | 0.0 | 0.00 | 0.29 | 0.29 | 95 | 1012.4 |
| 20260903105519 | 71 | 0 | 0.0 | 0.0 | 0.00 | 0.29 | 0.29 | 95 | 1012.3 |
| 20260903105018 | 71 | 0 | 0.0 | 0.0 | 0.00 | 0.29 | 0.29 | 95 | 1012.4 |
| 20260903104547 | 71 | 0 | 0.0 | 0.0 | 0.00 | 0.29 | 0.29 | 95 | 1012.3 |
| 20260903104016 | 71 | 0 | 0.0 | 0.0 | 0.00 | 0.29 | 0.29 | 95 | 1012.3 |
| 20260903103516 | 71 | 0 | 0.0 | 0.0 | 0.00 | 0.29 | 0.29 | 94 | 1012.4 |
| 20260903103034 | 71 | 0 | 0.0 | 0.0 | 0.00 | 0.29 | 0.29 | 95 | 1012.4 |
| 20260903102516 | 71 | 0 | 0.0 | 0.0 | 0.00 | 0.29 | 0.29 | 95 | 1012.4 |
| 20260903102016 | 71 | 0 | 0.0 | 0.0 | 0.00 | 0.29 | 0.29 | 95 | 1012.4 |
| 20260903101543 | 71 | 0 | 0.0 | 0.0 | 0.00 | 0.29 | 0.29 | 95 | 1012.5 |
| 20260903101019 | 71 | 0 | 0.0 | 0.0 | 0.00 | 0.29 | 0.29 | 94 | 1012.5 |
| 20260903100519 | 72 | 0 | 0.0 | 0.0 | 0.00 | 0.29 | 0.29 | 94 | 1012.5 |
| 20260903100040 | 72 | 0 | 0.0 | 0.0 | 0.00 | 0.29 | 0.29 | 95 | 1012.5 |
| 20260903095517 | 72 | 0 | 0.0 | 0.0 | 0.00 | 0.29 | 0.29 | 95 | 1012.6 |
| 20260903095016 | 72 | 0 | 0.0 | 0.0 | 0.00 | 0.29 | 0.29 | 95 | 1012.6 |
| 20260903094536 | 72 | 0 | 0.0 | 0.0 | 0.00 | 0.29 | 0.29 | 95 | 1012.7 |
| 20260903094019 | 72 | 0 | 0.0 | 0.0 | 0.00 | 0.29 | 0.29 | 95 | 1012.7 |
| 20260903093524 | 72 | 0 | 0.0 | 0.0 | 0.00 | 0.29 | 0.29 | 95 | 1012.7 |
| 20260903093041 | 72 | 0 | 0.0 | 0.0 | 0.00 | 0.29 | 0.29 | 95 | 1012.7 |
| 20260903092516 | 72 | 0 | 0.0 | 0.0 | 0.00 | 0.29 | 0.29 | 95 | 1012.7 |
| 20260903092016 | 72 | 0 | 0.0 | 0.0 | 0.00 | 0.29 | 0.29 | 94 | 1012.6 |
| 20260903091534 | 72 | 0 | 0.0 | 0.0 | 0.00 | 0.29 | 0.29 | 94 | 1012.6 |
| 20260903091017 | 72 | 0 | 0.0 | 0.0 | 0.00 | 0.29 | 0.29 | 94 | 1012.5 |
| 20260903090518 | 72 | 0 | 0.0 | 0.0 | 0.00 | 0.29 | 0.29 | 94 | 1012.6 |
| 20260903090047 | 72 | 0 | 0.0 | 0.0 | 0.00 | 0.29 | 0.29 | 94 | 1012.4 |
| 20260903085517 | 72 | 0 | 0.0 | 0.0 | 0.00 | 0.29 | 0.29 | 94 | 1012.7 |
| 20260903085017 | 72 | 0 | 0.0 | 0.0 | 0.00 | 0.29 | 0.29 | 94 | 1012.6 |
| 20260903084536 | 72 | 0 | 0.0 | 0.0 | 0.00 | 0.29 | 0.29 | 94 | 1012.5 |
| 20260903084018 | 72 | 0 | 0.0 | 0.0 | 0.00 | 0.29 | 0.29 | 94 | 1012.6 |
| 20260903083519 | 72 | 0 | 0.0 | 0.0 | 0.00 | 0.29 | 0.29 | 94 | 1012.6 |
| 20260903083037 | 72 | 0 | 0.0 | 0.0 | 0.00 | 0.29 | 0.29 | 94 | 1012.6 |
| 20260903082519 | 73 | 0 | 0.0 | 0.0 | 0.00 | 0.29 | 0.29 | 94 | 1012.5 |
| 20260903082017 | 73 | 0 | 0.0 | 0.0 | 0.00 | 0.29 | 0.29 | 94 | 1012.6 |
| 20260903081535 | 73 | 0 | 0.0 | 0.0 | 0.00 | 0.29 | 0.29 | 94 | 1012.5 |
| 20260903081020 | 73 | 0 | 0.0 | 0.0 | 0.00 | 0.29 | 0.29 | 94 | 1012.5 |
| 20260903080517 | 72 | 0 | 0.0 | 0.0 | 0.17 | 0.29 | 0.29 | 93 | 1012.5 |
| 20260903080038 | 73 | 0 | 0.0 | 0.0 | 0.29 | 0.29 | 0.29 | 93 | 1012.4 |
| 20260903075519 | 73 | 0 | 0.0 | 0.0 | 0.29 | 0.29 | 0.29 | 93 | 1012.4 |
| 20260903075019 | 73 | 0 | 0.0 | 0.0 | 0.29 | 0.29 | 0.29 | 93 | 1012.5 |
| 20260903074537 | 73 | 0 | 0.0 | 0.0 | 0.29 | 0.29 | 0.29 | 93 | 1012.5 |
| 20260903074016 | 73 | 0 | 0.0 | 0.0 | 0.29 | 0.29 | 0.29 | 92 | 1012.4 |
| 20260903073521 | 73 | 0 | 0.0 | 0.0 | 0.29 | 0.29 | 0.29 | 92 | 1012.4 |
| 20260903073043 | 73 | 0 | 0.0 | 2.0 | 0.29 | 0.29 | 0.29 | 92 | 1012.4 |
| 20260903072517 | 73 | 0 | 0.0 | 3.0 | 0.29 | 0.29 | 0.29 | 92 | 1012.5 |
| 20260903072016 | 73 | 246 | 1.0 | 7.0 | 0.29 | 0.29 | 0.29 | 91 | 1012.4 |
| 20260903071537 | 73 | 245 | 0.0 | 29.0 | 0.29 | 0.29 | 0.29 | 91 | 1012.3 |
| 20260903071017 | 73 | 154 | 5.0 | 29.0 | 0.28 | 0.28 | 0.28 | 90 | 1012.4 |
| 20260903070519 | 74 | 148 | 3.0 | 12.0 | 0.03 | 0.03 | 0.03 | 93 | 1014.3 |
| 20260903070043 | 74 | 0 | 0.0 | 0.0 | 0.00 | 0.00 | 0.00 | 92 | 1012.5 |
| 20260903065517 | 74 | 0 | 0.0 | 0.0 | 0.00 | 0.00 | 0.00 | 92 | 1012.5 |
| 20260903065018 | 75 | 0 | 0.0 | 0.0 | 0.00 | 0.00 | 0.00 | 92 | 1012.5 |
| 20260903064533 | 75 | 0 | 0.0 | 0.0 | 0.00 | 0.00 | 0.00 | 92 | 1012.6 |
| 20260903064016 | 75 | 0 | 0.0 | 0.0 | 0.00 | 0.00 | 0.00 | 92 | 1012.7 |
| 20260903063516 | 75 | 0 | 0.0 | 0.0 | 0.00 | 0.00 | 0.00 | 93 | 1012.7 |
| 20260903063035 | 75 | 0 | 0.0 | 0.0 | 0.00 | 0.00 | 0.00 | 93 | 1012.8 |
| 20260903062520 | 75 | 0 | 0.0 | 0.0 | 0.00 | 0.00 | 0.00 | 93 | 1012.7 |
| 20260903062019 | 76 | 0 | 0.0 | 0.0 | 0.00 | 0.00 | 0.00 | 93 | 1012.6 |
| 20260903061554 | 76 | 0 | 0.0 | 0.0 | 0.00 | 0.00 | 0.00 | 92 | 1012.7 |
| 20260903061019 | 76 | 0 | 0.0 | 0.0 | 0.00 | 0.00 | 0.00 | 92 | 1012.9 |
| 20260903060519 | 76 | 0 | 0.0 | 0.0 | 0.00 | 0.00 | 0.00 | 92 | 1012.8 |
| 20260903060039 | 76 | 0 | 0.0 | 0.0 | 0.00 | 0.00 | 0.00 | 92 | 1012.7 |
| 20260903055516 | 76 | 0 | 0.0 | 0.0 | 0.00 | 0.00 | 0.00 | 92 | 1012.7 |
| 20260903055017 | 76 | 0 | 0.0 | 0.0 | 0.00 | 0.00 | 0.00 | 92 | 1012.8 |
| 20260903054535 | 76 | 0 | 0.0 | 0.0 | 0.00 | 0.00 | 0.00 | 92 | 1012.8 |
| 20260903054016 | 76 | 0 | 0.0 | 0.0 | 0.00 | 0.00 | 0.00 | 92 | 1012.8 |
| 20260903053516 | 77 | 0 | 0.0 | 0.0 | 0.00 | 0.00 | 0.00 | 92 | 1012.8 |
| 20260903053035 | 77 | 0 | 0.0 | 0.0 | 0.00 | 0.00 | 0.00 | 92 | 1012.9 |
| 20260903052516 | 77 | 0 | 0.0 | 0.0 | 0.00 | 0.00 | 0.00 | 91 | 1012.9 |
| 20260903052016 | 77 | 0 | 0.0 | 0.0 | 0.00 | 0.00 | 0.00 | 92 | 1012.8 |
| 20260903051541 | 77 | 0 | 0.0 | 0.0 | 0.00 | 0.00 | 0.00 | 92 | 1012.9 |
| 20260903051021 | 77 | 0 | 0.0 | 0.0 | 0.00 | 0.00 | 0.00 | 92 | 1012.8 |
| 20260903050520 | 77 | 0 | 0.0 | 1.0 | 0.00 | 0.00 | 0.00 | 92 | 1012.8 |
| 20260903050042 | 77 | 0 | 0.0 | 1.0 | 0.00 | 0.00 | 0.00 | 92 | 1012.7 |
| 20260903045516 | 77 | 0 | 0.0 | 0.0 | 0.00 | 0.00 | 0.00 | 92 | 1012.7 |
| 20260903045015 | 77 | 0 | 0.0 | 0.0 | 0.00 | 0.00 | 0.00 | 92 | 1012.7 |
| 20260903044533 | 77 | 0 | 0.0 | 0.0 | 0.00 | 0.00 | 0.00 | 92 | 1012.5 |
| 20260903044018 | 77 | 0 | 0.0 | 0.0 | 0.00 | 0.00 | 0.00 | 92 | 1012.5 |
| 20260903043515 | 77 | 0 | 0.0 | 0.0 | 0.00 | 0.00 | 0.00 | 92 | 1012.5 |
| 20260903043042 | 77 | 0 | 0.0 | 0.0 | 0.00 | 0.00 | 0.00 | 92 | 1012.4 |
| 20260903042517 | 77 | 0 | 0.0 | 0.0 | 0.00 | 0.00 | 0.00 | 92 | 1012.4 |
| 20260903042017 | 77 | 0 | 0.0 | 0.0 | 0.00 | 0.00 | 0.00 | 92 | 1012.5 |
| 20260903041539 | 77 | 0 | 0.0 | 0.0 | 0.00 | 0.00 | 0.00 | 92 | 1012.4 |
| 20260903041018 | 77 | 0 | 0.0 | 0.0 | 0.00 | 0.00 | 0.00 | 92 | 1012.3 |
| 20260903040516 | 77 | 0 | 0.0 | 0.0 | 0.00 | 0.00 | 0.00 | 91 | 1012.4 |
| 20260903040037 | 77 | 0 | 0.0 | 0.0 | 0.00 | 0.00 | 0.00 | 91 | 1012.4 |
| 20260903035522 | 77 | 0 | 0.0 | 0.0 | 0.00 | 0.00 | 0.00 | 91 | 1012.4 |
| 20260903035015 | 77 | 0 | 0.0 | 0.0 | 0.00 | 0.00 | 0.00 | 91 | 1012.4 |
| 20260903034533 | 76 | 0 | 0.0 | 0.0 | 0.00 | 0.00 | 0.00 | 91 | 1012.4 |
| 20260903034017 | 76 | 0 | 0.0 | 0.0 | 0.00 | 0.00 | 0.00 | 91 | 1012.3 |
| 20260903033524 | 76 | 0 | 0.0 | 0.0 | 0.00 | 0.00 | 0.00 | 91 | 1012.5 |
| 20260903033043 | 76 | 0 | 0.0 | 0.0 | 0.00 | 0.00 | 0.00 | 91 | 1012.4 |
| 20260903032520 | 76 | 0 | 0.0 | 0.0 | 0.00 | 0.00 | 0.00 | 90 | 1012.4 |
| 20260903032016 | 76 | 0 | 0.0 | 0.0 | 0.00 | 0.00 | 0.00 | 89 | 1012.5 |
| 20260903031534 | 76 | 0 | 0.0 | 0.0 | 0.00 | 0.00 | 0.00 | 89 | 1012.5 |
| 20260903031019 | 76 | 0 | 0.0 | 0.0 | 0.00 | 0.00 | 0.00 | 89 | 1012.5 |
| 20260903030519 | 76 | 0 | 0.0 | 0.0 | 0.00 | 0.00 | 0.00 | 89 | 1012.4 |
| 20260903025523 | 77 | 0 | 0.0 | 0.0 | 0.00 | 0.00 | 0.00 | 88 | 1012.5 |
| 20260903025016 | 77 | 0 | 0.0 | 0.0 | 0.00 | 0.00 | 0.00 | 88 | 1012.5 |
| 20260903024537 | 77 | 0 | 0.0 | 0.0 | 0.00 | 0.00 | 0.00 | 88 | 1012.5 |
| 20260903024019 | 77 | 0 | 0.0 | 0.0 | 0.00 | 0.00 | 0.00 | 88 | 1012.5 |
| 20260903023517 | 77 | 0 | 0.0 | 0.0 | 0.00 | 0.00 | 0.00 | 88 | 1012.5 |
| 20260903023038 | 77 | 0 | 0.0 | 0.0 | 0.00 | 0.00 | 0.00 | 87 | 1012.4 |
| 20260903022520 | 77 | 0 | 0.0 | 0.0 | 0.00 | 0.00 | 0.00 | 87 | 1012.4 |
| 20260903022018 | 77 | 0 | 0.0 | 0.0 | 0.00 | 0.00 | 0.00 | 87 | 1012.3 |
| 20260903021536 | 78 | 0 | 0.0 | 0.0 | 0.00 | 0.00 | 0.00 | 86 | 1012.4 |
| 20260903021017 | 78 | 0 | 0.0 | 0.0 | 0.00 | 0.00 | 0.00 | 86 | 1012.4 |
| 20260903020518 | 78 | 0 | 0.0 | 0.0 | 0.00 | 0.00 | 0.00 | 86 | 1012.3 |
| 20260903020037 | 78 | 0 | 0.0 | 0.0 | 0.00 | 0.00 | 0.00 | 86 | 1012.3 |
| 20260903015518 | 78 | 0 | 0.0 | 0.0 | 0.00 | 0.00 | 0.00 | 85 | 1012.3 |
| 20260903015017 | 78 | 0 | 0.0 | 0.0 | 0.00 | 0.00 | 0.00 | 85 | 1012.4 |
| 20260903014535 | 79 | 0 | 0.0 | 0.0 | 0.00 | 0.00 | 0.00 | 84 | 1012.3 |
| 20260903014017 | 79 | 0 | 0.0 | 0.0 | 0.00 | 0.00 | 0.00 | 84 | 1012.3 |
| 20260903013516 | 79 | 0 | 0.0 | 0.0 | 0.00 | 0.00 | 0.00 | 83 | 1012.2 |
| 20260903013043 | 79 | 0 | 0.0 | 0.0 | 0.00 | 0.00 | 0.00 | 82 | 1012.1 |
| 20260903012519 | 80 | 0 | 0.0 | 0.0 | 0.00 | 0.00 | 0.00 | 82 | 1012.0 |
| 20260903012019 | 80 | 0 | 0.0 | 0.0 | 0.00 | 0.00 | 0.00 | 81 | 1011.9 |
| 20260903011533 | 80 | 0 | 0.0 | 0.0 | 0.00 | 0.00 | 0.00 | 81 | 1011.9 |
| 20260903011016 | 81 | 0 | 0.0 | 0.0 | 0.00 | 0.00 | 0.00 | 80 | 1011.9 |
| 20260903010518 | 81 | 0 | 0.0 | 0.0 | 0.00 | 0.00 | 0.00 | 78 | 1011.7 |
| 20260903010036 | 82 | 0 | 0.0 | 0.0 | 0.00 | 0.00 | 0.00 | 78 | 1011.7 |
| 20260903005516 | 82 | 0 | 0.0 | 0.0 | 0.00 | 0.00 | 0.00 | 77 | 1011.6 |
| 20260903005018 | 82 | 0 | 0.0 | 0.0 | 0.00 | 0.00 | 0.00 | 76 | 1011.5 |
| 20260903004536 | 83 | 0 | 0.0 | 0.0 | 0.00 | 0.00 | 0.00 | 75 | 1011.5 |
| 20260903004017 | 83 | 0 | 0.0 | 0.0 | 0.00 | 0.00 | 0.00 | 75 | 1011.5 |
| 20260903003520 | 84 | 0 | 0.0 | 2.0 | 0.00 | 0.00 | 0.00 | 74 | 1011.5 |
| 20260903003040 | 84 | 0 | 0.0 | 3.0 | 0.00 | 0.00 | 0.00 | 74 | 1011.5 |
| 20260903002518 | 84 | 228 | 0.0 | 3.0 | 0.00 | 0.00 | 0.00 | 73 | 1011.5 |
| 20260903002018 | 85 | 225 | 1.0 | 3.0 | 0.00 | 0.00 | 0.00 | 73 | 1011.6 |
| 20260903001537 | 85 | 0 | 0.0 | 2.0 | 0.00 | 0.00 | 0.00 | 72 | 1011.6 |
| 20260903001018 | 85 | 202 | 0.0 | 3.0 | 0.00 | 0.00 | 0.00 | 72 | 1011.5 |
| 20260903000516 | 86 | 250 | 0.0 | 4.0 | 0.00 | 0.00 | 0.00 | 71 | 1011.5 |
| 20260903000039 | 86 | 0 | 1.0 | 4.0 | 0.00 | 0.00 | 0.00 | 70 | 1011.5 |
| 20260902235517 | 86 | 223 | 1.0 | 7.0 | 0.00 | 0.00 | 0.00 | 70 | 1011.6 |
| 20260902235018 | 86 | 277 | 2.0 | 7.0 | 0.00 | 0.00 | 0.00 | 69 | 1011.7 |
| 20260902234539 | 87 | 182 | 2.0 | 5.0 | 0.00 | 0.00 | 0.00 | 69 | 1011.7 |
| 20260902234022 | 87 | 243 | 2.0 | 4.0 | 0.00 | 0.00 | 0.00 | 69 | 1011.7 |
| 20260902233519 | 87 | 221 | 2.0 | 4.0 | 0.00 | 0.00 | 0.00 | 70 | 1011.6 |
| 20260902233037 | 86 | 238 | 0.0 | 7.0 | 0.00 | 0.00 | 0.00 | 70 | 1011.6 |
| 20260902232522 | 86 | 246 | 1.0 | 7.0 | 0.00 | 0.00 | 0.00 | 70 | 1011.7 |
| 20260902232018 | 87 | 0 | 0.0 | 4.0 | 0.00 | 0.00 | 0.00 | 70 | 1011.6 |
| 20260902231543 | 87 | 259 | 1.0 | 4.0 | 0.00 | 0.00 | 0.00 | 70 | 1011.7 |
| 20260902231019 | 87 | 230 | 2.0 | 4.0 | 0.00 | 0.00 | 0.00 | 69 | 1011.7 |
| 20260902230518 | 87 | 263 | 2.0 | 5.0 | 0.00 | 0.00 | 0.00 | 69 | 1011.7 |
| 20260902230035 | 87 | 178 | 1.0 | 5.0 | 0.00 | 0.00 | 0.00 | 69 | 1011.6 |
| 20260902225519 | 87 | 285 | 1.0 | 4.0 | 0.00 | 0.00 | 0.00 | 68 | 1011.7 |
| 20260902225021 | 87 | 238 | 1.0 | 7.0 | 0.00 | 0.00 | 0.00 | 68 | 1011.6 |
| 20260902224551 | 87 | 201 | 2.0 | 7.0 | 0.00 | 0.00 | 0.00 | 68 | 1011.7 |
| 20260902224024 | 87 | 244 | 2.0 | 7.0 | 0.00 | 0.00 | 0.00 | 67 | 1011.7 |
| 20260902223520 | 87 | 303 | 2.0 | 7.0 | 0.00 | 0.00 | 0.00 | 67 | 1011.7 |
| 20260902223048 | 87 | 269 | 3.0 | 8.0 | 0.00 | 0.00 | 0.00 | 67 | 1011.7 |
| 20260902222522 | 87 | 256 | 2.0 | 8.0 | 0.00 | 0.00 | 0.00 | 67 | 1011.9 |
| 20260902222023 | 88 | 0 | 2.0 | 10.0 | 0.00 | 0.00 | 0.00 | 66 | 1011.7 |
| 20260902221549 | 88 | 279 | 2.0 | 10.0 | 0.00 | 0.00 | 0.00 | 66 | 1012.0 |
| 20260902221016 | 88 | 304 | 2.0 | 8.0 | 0.00 | 0.00 | 0.00 | 66 | 1012.0 |
| 20260902220519 | 88 | 229 | 3.0 | 8.0 | 0.00 | 0.00 | 0.00 | 64 | 1011.9 |
| 20260902220054 | 88 | 265 | 2.0 | 9.0 | 0.00 | 0.00 | 0.00 | 66 | 1011.8 |
| 20260902215518 | 88 | 253 | 3.0 | 10.0 | 0.00 | 0.01 | 0.00 | 65 | 1012.0 |
| 20260902215015 | 88 | 219 | 3.0 | 10.0 | 0.00 | 0.01 | 0.00 | 64 | 1011.9 |
| 20260902214540 | 88 | 239 | 4.0 | 9.0 | 0.00 | 0.01 | 0.00 | 64 | 1011.9 |
| 20260902214019 | 88 | 245 | 5.0 | 9.0 | 0.00 | 0.01 | 0.00 | 62 | 1012.1 |
| 20260902213520 | 88 | 252 | 3.0 | 10.0 | 0.00 | 0.01 | 0.00 | 62 | 1012.2 |
| 20260902213040 | 89 | 207 | 4.0 | 10.0 | 0.00 | 0.01 | 0.00 | 61 | 1012.0 |
| 20260902212519 | 89 | 246 | 2.0 | 7.0 | 0.00 | 0.01 | 0.00 | 61 | 1011.9 |
| 20260902212019 | 89 | 250 | 4.0 | 8.0 | 0.00 | 0.01 | 0.00 | 61 | 1011.8 |
| 20260902211539 | 89 | 252 | 3.0 | 13.0 | 0.00 | 0.01 | 0.00 | 61 | 1011.9 |
| 20260902211020 | 89 | 273 | 5.0 | 13.0 | 0.00 | 0.01 | 0.00 | 61 | 1011.9 |
| 20260902210518 | 89 | 232 | 5.0 | 10.0 | 0.00 | 0.01 | 0.00 | 61 | 1011.9 |
| 20260902210046 | 89 | 169 | 4.0 | 10.0 | 0.00 | 0.01 | 0.00 | 61 | 1012.0 |
| 20260902205515 | 89 | 227 | 4.0 | 11.0 | 0.00 | 0.06 | 0.00 | 59 | 1012.1 |
| 20260902205019 | 89 | 225 | 5.0 | 11.0 | 0.00 | 0.06 | 0.00 | 60 | 1012.1 |
| 20260902204547 | 90 | 243 | 4.0 | 8.0 | 0.00 | 0.06 | 0.00 | 63 | 1012.0 |
| 20260902204017 | 90 | 250 | 4.0 | 9.0 | 0.00 | 0.06 | 0.00 | 64 | 1011.9 |
| 20260902203519 | 89 | 230 | 3.0 | 9.0 | 0.00 | 0.06 | 0.00 | 65 | 1011.8 |
| 20260902203043 | 89 | 171 | 5.0 | 9.0 | 0.00 | 0.06 | 0.00 | 64 | 1011.8 |
| 20260902202517 | 89 | 222 | 2.0 | 9.0 | 0.00 | 0.06 | 0.00 | 66 | 1011.9 |
| 20260902202020 | 89 | 277 | 5.0 | 9.0 | 0.00 | 0.06 | 0.00 | 64 | 1012.0 |
| 20260902201545 | 89 | 179 | 3.0 | 9.0 | 0.00 | 0.06 | 0.00 | 65 | 1011.9 |
| 20260902201015 | 89 | 212 | 2.0 | 8.0 | 0.00 | 0.06 | 0.00 | 64 | 1011.9 |
| 20260902200518 | 89 | 194 | 3.0 | 8.0 | 0.00 | 0.06 | 0.00 | 64 | 1012.0 |
| 20260902200041 | 89 | 185 | 4.0 | 8.0 | 0.00 | 0.06 | 0.00 | 65 | 1012.0 |
| 20260902195516 | 89 | 157 | 4.0 | 9.0 | 0.00 | 0.06 | 0.00 | 66 | 1012.2 |
| 20260902195018 | 89 | 191 | 2.0 | 9.0 | 0.00 | 0.06 | 0.00 | 66 | 1012.2 |
| 20260902194536 | 89 | 260 | 4.0 | 9.0 | 0.00 | 0.06 | 0.00 | 65 | 1012.3 |
| 20260902194018 | 89 | 206 | 5.0 | 12.0 | 0.00 | 0.06 | 0.00 | 64 | 1012.3 |